Retour au catalogue

STARLINK-4565

ActifCommunicationsVLEO
NORAD 53562·PAYLOAD·🇺🇸 United States

Lancé Aug 19, 2022 depuis Cape Canaveral Space Force Station

Loading…

Prochains Passages (prochaines 24 heures)

TLE

FraisSource: CelesTrak SupGP

Époque: Sep 15, 2026, 02:05 UTC

1 53562C 22101AM  26258.08729167 -.00005921  00000+0 -17492-3 0  2582
2 53562  53.1575 268.9424 0001333  94.5984 200.7617 15.34398441    19

Suivez STARLINK-4565 en temps réel avec AllMySat

Download on the App Store